Time,TemperatureF,DewpointF,PressureIn,WindDirection,WindDirectionDegrees,WindSpeedMPH,WindSpeedGustMPH,Humidity,HourlyPrecipIn,Conditions,Clouds,dailyrainin,SoftwareType,DateUTC
2013-04-22 00:00:00,52.0,42.0,-100.00,SE,130,0.0,0.0,68,-99.99,,,-99.99,,2013-04-22 05:00:00,
2013-04-22 00:02:00,53.0,42.0,-100.00,SSE,150,0.0,0.0,67,-99.99,,,-99.99,,2013-04-22 05:02:00,
2013-04-22 00:12:00,53.0,42.0,-100.00,SE,140,0.0,0.0,67,-99.99,,,-99.99,,2013-04-22 05:12:00,
2013-04-22 00:22:00,52.0,42.0,-100.00,SE,125,0.0,0.0,67,-99.99,,,-99.99,,2013-04-22 05:22:00,
2013-04-22 00:32:00,52.0,42.0,-100.00,SE,125,0.0,0.0,67,-99.99,,,-99.99,,2013-04-22 05:32:00,
2013-04-22 00:42:00,52.0,42.0,-100.00,SE,130,0.0,0.0,68,-99.99,,,-99.99,,2013-04-22 05:42:00,
2013-04-22 00:52:00,52.0,42.0,-100.00,SE,130,0.0,0.0,68,-99.99,,,-99.99,,2013-04-22 05:52:00,
2013-04-22 01:12:00,51.0,41.0,-100.00,South,175,0.0,0.0,69,-99.99,,,-99.99,,2013-04-22 06:12:00,
2013-04-22 01:21:00,51.0,41.0,-100.00,SSE,165,0.0,0.0,69,-99.99,,,-99.99,,2013-04-22 06:21:00,
2013-04-22 01:32:00,51.0,41.0,-100.00,SSE,165,0.0,0.0,69,-99.99,,,-99.99,,2013-04-22 06:32:00,
2013-04-22 01:42:00,51.0,41.0,-100.00,SSE,165,0.0,0.0,69,-99.99,,,-99.99,,2013-04-22 06:42:00,
2013-04-22 01:52:00,51.0,41.0,-100.00,South,175,0.0,0.0,69,-99.99,,,-99.99,,2013-04-22 06:52:00,
2013-04-22 02:01:00,51.0,41.0,-100.00,South,175,0.0,0.0,69,-99.99,,,-99.99,,2013-04-22 07:01:00,
2013-04-22 02:12:00,50.0,40.0,-100.00,SE,145,0.0,0.0,69,-99.99,,,-99.99,,2013-04-22 07:12:00,
2013-04-22 02:21:00,50.0,40.0,-100.00,SSE,160,0.0,0.0,69,-99.99,,,-99.99,,2013-04-22 07:21:00,
2013-04-22 02:32:00,50.0,40.0,-100.00,SSE,160,0.0,0.0,69,-99.99,,,-99.99,,2013-04-22 07:32:00,
2013-04-22 02:42:00,50.0,40.0,-100.00,SE,145,0.0,0.0,69,-99.99,,,-99.99,,2013-04-22 07:42:00,
2013-04-22 02:52:00,50.0,40.0,-100.00,SSE,150,0.0,0.0,69,-99.99,,,-99.99,,2013-04-22 07:52:00,
2013-04-22 03:02:00,50.0,40.0,-100.00,SSE,150,0.0,0.0,69,-99.99,,,-99.99,,2013-04-22 08:02:00,
2013-04-22 03:11:00,49.0,39.0,-100.00,SE,145,0.0,0.0,69,-99.99,,,-99.99,,2013-04-22 08:11:00,
2013-04-22 03:22:00,49.0,39.0,-100.00,SSE,165,0.0,0.0,69,-99.99,,,-99.99,,2013-04-22 08:22:00,
2013-04-22 03:32:00,49.0,39.0,-100.00,SSE,165,0.0,0.0,69,-99.99,,,-99.99,,2013-04-22 08:32:00,
2013-04-22 03:42:00,48.0,39.0,-100.00,SSE,150,0.0,0.0,70,-99.99,,,-99.99,,2013-04-22 08:42:00,
2013-04-22 03:53:00,48.0,39.0,-100.00,SSE,165,0.0,0.0,70,-99.99,,,-99.99,,2013-04-22 08:53:00,
2013-04-22 04:01:00,48.0,39.0,-100.00,SSE,165,0.0,0.0,70,-99.99,,,-99.99,,2013-04-22 09:01:00,
2013-04-22 04:11:00,48.0,39.0,-100.00,SSE,155,0.0,0.0,71,-99.99,,,-99.99,,2013-04-22 09:11:00,
2013-04-22 04:21:00,47.0,39.0,-100.00,SSE,150,0.0,0.0,71,-99.99,,,-99.99,,2013-04-22 09:21:00,
2013-04-22 04:33:00,47.0,39.0,-100.00,SSE,150,0.0,0.0,71,-99.99,,,-99.99,,2013-04-22 09:33:00,
2013-04-22 04:42:00,47.0,38.0,-100.00,South,170,0.0,0.0,71,-99.99,,,-99.99,,2013-04-22 09:42:00,
2013-04-22 04:52:00,47.0,38.0,-100.00,SE,135,0.0,0.0,71,-99.99,,,-99.99,,2013-04-22 09:52:00,
2013-04-22 05:03:00,47.0,38.0,-100.00,SE,135,0.0,0.0,71,-99.99,,,-99.99,,2013-04-22 10:03:00,
2013-04-22 05:12:00,46.0,38.0,-100.00,SSE,160,0.0,0.0,73,-99.99,,,-99.99,,2013-04-22 10:12:00,
2013-04-22 05:22:00,46.0,38.0,-100.00,SE,140,0.0,0.0,73,-99.99,,,-99.99,,2013-04-22 10:22:00,
2013-04-22 05:32:00,46.0,38.0,-100.00,SSE,160,0.0,0.0,73,-99.99,,,-99.99,,2013-04-22 10:32:00,
2013-04-22 05:42:00,46.0,38.0,-100.00,SSE,160,0.0,0.0,73,-99.99,,,-99.99,,2013-04-22 10:42:00,
2013-04-22 05:52:00,46.0,38.0,-100.00,SE,135,0.0,0.0,74,-99.99,,,-99.99,,2013-04-22 10:52:00,
2013-04-22 06:02:00,46.0,38.0,-100.00,SE,135,0.0,0.0,74,-99.99,,,-99.99,,2013-04-22 11:02:00,
2013-04-22 06:12:00,45.0,38.0,-100.00,SE,145,0.0,0.0,75,-99.99,,,-99.99,,2013-04-22 11:12:00,
2013-04-22 06:22:00,45.0,38.0,-100.00,SE,140,0.0,0.0,75,-99.99,,,-99.99,,2013-04-22 11:22:00,
2013-04-22 06:32:00,45.0,38.0,-100.00,SE,140,0.0,0.0,75,-99.99,,,-99.99,,2013-04-22 11:32:00,
2013-04-22 06:42:00,45.0,38.0,-100.00,SE,145,0.0,0.0,75,-99.99,,,-99.99,,2013-04-22 11:42:00,
2013-04-22 06:52:00,45.0,38.0,-100.00,SE,145,0.0,0.0,75,-99.99,,,-99.99,,2013-04-22 11:52:00,
2013-04-22 07:02:00,45.0,38.0,-100.00,SE,145,0.0,0.0,75,-99.99,,,-99.99,,2013-04-22 12:02:00,
2013-04-22 07:12:00,45.0,38.0,-100.00,SE,145,0.0,0.0,75,-99.99,,,-99.99,,2013-04-22 12:12:00,
2013-04-22 07:21:00,46.0,38.0,-100.00,SSE,160,0.0,0.0,74,-99.99,,,-99.99,,2013-04-22 12:21:00,
2013-04-22 07:32:00,46.0,38.0,-100.00,SSE,160,0.0,0.0,74,-99.99,,,-99.99,,2013-04-22 12:32:00,
2013-04-22 07:42:00,46.0,38.0,-100.00,SSE,160,0.0,0.0,74,-99.99,,,-99.99,,2013-04-22 12:42:00,
2013-04-22 07:52:00,47.0,38.0,-100.00,SSE,160,0.0,0.0,72,-99.99,,,-99.99,,2013-04-22 12:52:00,
2013-04-22 08:01:00,47.0,38.0,-100.00,SSE,160,0.0,0.0,72,-99.99,,,-99.99,,2013-04-22 13:01:00,
2013-04-22 08:11:00,48.0,38.0,-100.00,SSE,165,0.0,0.0,70,-99.99,,,-99.99,,2013-04-22 13:11:00,
2013-04-22 08:22:00,49.0,39.0,-100.00,South,180,0.0,0.0,69,-99.99,,,-99.99,,2013-04-22 13:22:00,
2013-04-22 08:32:00,49.0,39.0,-100.00,South,180,0.0,0.0,69,-99.99,,,-99.99,,2013-04-22 13:32:00,
2013-04-22 08:42:00,50.0,39.0,-100.00,South,185,0.0,0.0,66,-99.99,,,-99.99,,2013-04-22 13:42:00,
2013-04-22 08:53:00,51.0,39.0,-100.00,South,170,0.0,0.0,63,-99.99,,,-99.99,,2013-04-22 13:53:00,
2013-04-22 09:02:00,51.0,39.0,-100.00,South,170,0.0,0.0,63,-99.99,,,-99.99,,2013-04-22 14:02:00,
2013-04-22 09:11:00,52.0,40.0,-100.00,South,185,0.0,0.0,63,-99.99,,,-99.99,,2013-04-22 14:11:00,
2013-04-22 09:21:00,53.0,40.0,-100.00,SSE,165,0.0,0.0,61,-99.99,,,-99.99,,2013-04-22 14:21:00,
2013-04-22 09:33:00,53.0,40.0,-100.00,SSE,165,0.0,0.0,61,-99.99,,,-99.99,,2013-04-22 14:33:00,
2013-04-22 09:42:00,54.0,40.0,-100.00,South,170,0.0,0.0,59,-99.99,,,-99.99,,2013-04-22 14:42:00,
2013-04-22 09:52:00,55.0,40.0,-100.00,South,185,0.0,0.0,57,-99.99,,,-99.99,,2013-04-22 14:52:00,
2013-04-22 10:02:00,55.0,40.0,-100.00,South,185,0.0,0.0,57,-99.99,,,-99.99,,2013-04-22 15:02:00,
2013-04-22 10:12:00,56.0,40.0,-100.00,South,190,0.0,0.0,55,-99.99,,,-99.99,,2013-04-22 15:12:00,
2013-04-22 10:22:00,58.0,41.0,-100.00,South,190,0.0,0.0,53,-99.99,,,-99.99,,2013-04-22 15:22:00,
2013-04-22 10:33:00,58.0,41.0,-100.00,South,190,0.0,0.0,53,-99.99,,,-99.99,,2013-04-22 15:33:00,
2013-04-22 10:43:00,59.0,41.0,-100.00,South,170,0.0,0.0,51,-99.99,,,-99.99,,2013-04-22 15:43:00,
2013-04-22 10:53:00,61.0,41.0,-100.00,SSE,150,0.0,0.0,49,-99.99,,,-99.99,,2013-04-22 15:53:00,
2013-04-22 11:03:00,61.0,41.0,-100.00,SSE,150,0.0,0.0,49,-99.99,,,-99.99,,2013-04-22 16:03:00,
2013-04-22 11:12:00,61.0,41.0,-100.00,SSE,150,0.0,0.0,49,-99.99,,,-99.99,,2013-04-22 16:12:00,
2013-04-22 11:23:00,62.0,40.0,-100.00,South,180,0.0,0.0,45,-99.99,,,-99.99,,2013-04-22 16:23:00,
2013-04-22 11:33:00,62.0,40.0,-100.00,South,180,0.0,0.0,45,-99.99,,,-99.99,,2013-04-22 16:33:00,
2013-04-22 11:42:00,62.0,40.0,-100.00,South,185,0.0,0.0,45,-99.99,,,-99.99,,2013-04-22 16:42:00,
2013-04-22 11:52:00,63.0,40.0,-100.00,SW,235,0.0,0.0,42,-99.99,,,-99.99,,2013-04-22 16:52:00,
2013-04-22 12:02:00,63.0,40.0,-100.00,SW,235,0.0,0.0,42,-99.99,,,-99.99,,2013-04-22 17:02:00,
2013-04-22 12:12:00,64.0,41.0,-100.00,South,190,0.0,0.0,42,-99.99,,,-99.99,,2013-04-22 17:12:00,
2013-04-22 12:22:00,64.0,40.0,-100.00,SW,230,0.0,0.0,41,-99.99,,,-99.99,,2013-04-22 17:22:00,
2013-04-22 12:32:00,65.0,41.0,-100.00,SW,215,0.0,0.0,41,-99.99,,,-99.99,,2013-04-22 17:32:00,
2013-04-22 12:42:00,65.0,41.0,-100.00,SW,215,0.0,0.0,41,-99.99,,,-99.99,,2013-04-22 17:42:00,
2013-04-22 12:52:00,65.0,40.0,-100.00,South,185,0.0,0.0,39,-99.99,,,-99.99,,2013-04-22 17:52:00,
2013-04-22 13:01:00,65.0,40.0,-100.00,South,185,0.0,0.0,39,-99.99,,,-99.99,,2013-04-22 18:01:00,
2013-04-22 13:12:00,67.0,41.0,-100.00,SSW,200,0.0,0.0,39,-99.99,,,-99.99,,2013-04-22 18:12:00,
2013-04-22 13:21:00,67.0,41.0,-100.00,SSE,165,0.0,0.0,39,-99.99,,,-99.99,,2013-04-22 18:21:00,
2013-04-22 13:32:00,67.0,41.0,-100.00,SSE,165,0.0,0.0,39,-99.99,,,-99.99,,2013-04-22 18:32:00,
2013-04-22 13:42:00,68.0,38.0,-100.00,SE,145,0.0,0.0,34,-99.99,,,-99.99,,2013-04-22 18:42:00,
2013-04-22 13:52:00,68.0,39.0,-100.00,South,185,0.0,0.0,35,-99.99,,,-99.99,,2013-04-22 18:52:00,
2013-04-22 14:01:00,68.0,39.0,-100.00,South,185,0.0,0.0,35,-99.99,,,-99.99,,2013-04-22 19:01:00,
2013-04-22 14:12:00,68.0,39.0,-100.00,South,175,0.0,0.0,35,-99.99,,,-99.99,,2013-04-22 19:12:00,
2013-04-22 14:22:00,69.0,40.0,-100.00,SE,135,0.0,0.0,35,-99.99,,,-99.99,,2013-04-22 19:22:00,
2013-04-22 14:32:00,69.0,40.0,-100.00,SE,135,0.0,0.0,35,-99.99,,,-99.99,,2013-04-22 19:32:00,
2013-04-22 14:42:00,69.0,40.0,-100.00,SE,130,0.0,0.0,35,-99.99,,,-99.99,,2013-04-22 19:42:00,
2013-04-22 14:53:00,68.0,39.0,-100.00,ESE,110,0.0,0.0,35,-99.99,,,-99.99,,2013-04-22 19:53:00,
2013-04-22 15:02:00,68.0,39.0,-100.00,ESE,110,0.0,0.0,35,-99.99,,,-99.99,,2013-04-22 20:02:00,
2013-04-22 15:11:00,69.0,39.0,-100.00,SE,145,0.0,0.0,34,-99.99,,,-99.99,,2013-04-22 20:11:00,
2013-04-22 15:22:00,69.0,39.0,-100.00,SE,135,0.0,0.0,33,-99.99,,,-99.99,,2013-04-22 20:22:00,
2013-04-22 15:32:00,69.0,39.0,-100.00,SE,135,0.0,0.0,33,-99.99,,,-99.99,,2013-04-22 20:32:00,
2013-04-22 15:42:00,68.0,39.0,-100.00,SE,135,0.0,0.0,34,-99.99,,,-99.99,,2013-04-22 20:42:00,
2013-04-22 15:52:00,68.0,39.0,-100.00,SE,125,0.0,0.0,34,-99.99,,,-99.99,,2013-04-22 20:52:00,
2013-04-22 16:02:00,68.0,39.0,-100.00,SE,125,0.0,0.0,34,-99.99,,,-99.99,,2013-04-22 21:02:00,
2013-04-22 16:11:00,68.0,38.0,-100.00,SE,135,0.0,0.0,34,-99.99,,,-99.99,,2013-04-22 21:11:00,
2013-04-22 16:21:00,67.0,38.0,-100.00,SSE,160,0.0,0.0,34,-99.99,,,-99.99,,2013-04-22 21:21:00,
2013-04-22 16:32:00,67.0,38.0,-100.00,SSE,160,0.0,0.0,34,-99.99,,,-99.99,,2013-04-22 21:32:00,
2013-04-22 16:43:00,69.0,40.0,-100.00,SE,145,0.0,0.0,34,-99.99,,,-99.99,,2013-04-22 21:43:00,
2013-04-22 16:53:00,69.0,40.0,-100.00,SSE,150,0.0,0.0,35,-99.99,,,-99.99,,2013-04-22 21:53:00,
2013-04-22 17:03:00,69.0,40.0,-100.00,SSE,150,0.0,0.0,35,-99.99,,,-99.99,,2013-04-22 22:03:00,
2013-04-22 17:12:00,70.0,39.0,-100.00,ESE,120,0.0,0.0,33,-99.99,,,-99.99,,2013-04-22 22:12:00,
2013-04-22 17:22:00,69.0,40.0,-100.00,SE,145,0.0,0.0,35,-99.99,,,-99.99,,2013-04-22 22:22:00,
2013-04-22 17:33:00,69.0,40.0,-100.00,SE,145,0.0,0.0,35,-99.99,,,-99.99,,2013-04-22 22:33:00,
2013-04-22 17:42:00,69.0,41.0,-100.00,SSE,160,0.0,0.0,35,-99.99,,,-99.99,,2013-04-22 22:42:00,
2013-04-22 17:52:00,69.0,40.0,-100.00,SSE,165,0.0,0.0,35,-99.99,,,-99.99,,2013-04-22 22:52:00,
2013-04-22 18:02:00,69.0,40.0,-100.00,SSE,165,0.0,0.0,35,-99.99,,,-99.99,,2013-04-22 23:02:00,
2013-04-22 18:11:00,68.0,39.0,-100.00,SSE,165,0.0,0.0,35,-99.99,,,-99.99,,2013-04-22 23:11:00,
2013-04-22 18:21:00,67.0,40.0,-100.00,South,185,0.0,0.0,37,-99.99,,,-99.99,,2013-04-22 23:21:00,
2013-04-22 18:33:00,67.0,40.0,-100.00,South,185,0.0,0.0,37,-99.99,,,-99.99,,2013-04-22 23:33:00,
2013-04-22 18:42:00,67.0,40.0,-100.00,South,180,0.0,0.0,38,-99.99,,,-99.99,,2013-04-22 23:42:00,
2013-04-22 18:52:00,67.0,41.0,-100.00,SSE,160,0.0,0.0,39,-99.99,,,-99.99,,2013-04-22 23:52:00,
2013-04-22 19:02:00,67.0,41.0,-100.00,SSE,160,0.0,0.0,39,-99.99,,,-99.99,,2013-04-23 00:02:00,
2013-04-22 19:12:00,67.0,41.0,-100.00,SSE,160,0.0,0.0,39,-99.99,,,-99.99,,2013-04-23 00:12:00,
2013-04-22 19:21:00,66.0,40.0,-100.00,SE,135,0.0,0.0,39,-99.99,,,-99.99,,2013-04-23 00:21:00,
2013-04-22 19:32:00,66.0,40.0,-100.00,SE,135,0.0,0.0,39,-99.99,,,-99.99,,2013-04-23 00:32:00,
2013-04-22 19:42:00,66.0,40.0,-100.00,SE,135,0.0,0.0,39,-99.99,,,-99.99,,2013-04-23 00:42:00,
2013-04-22 19:52:00,65.0,41.0,-100.00,SSE,160,0.0,0.0,41,-99.99,,,-99.99,,2013-04-23 00:52:00,
2013-04-22 20:01:00,65.0,41.0,-100.00,SSE,160,0.0,0.0,41,-99.99,,,-99.99,,2013-04-23 01:01:00,
2013-04-22 20:11:00,65.0,42.0,-100.00,SE,140,0.0,0.0,43,-99.99,,,-99.99,,2013-04-23 01:11:00,
2013-04-22 20:21:00,64.0,42.0,-100.00,SE,145,0.0,0.0,44,-99.99,,,-99.99,,2013-04-23 01:21:00,
2013-04-22 20:32:00,64.0,42.0,-100.00,SE,145,0.0,0.0,44,-99.99,,,-99.99,,2013-04-23 01:32:00,
2013-04-22 20:42:00,63.0,42.0,-100.00,SE,130,0.0,0.0,45,-99.99,,,-99.99,,2013-04-23 01:42:00,
2013-04-22 20:52:00,63.0,43.0,-100.00,SE,135,0.0,0.0,47,-99.99,,,-99.99,,2013-04-23 01:52:00,
2013-04-22 21:02:00,63.0,43.0,-100.00,SE,135,0.0,0.0,47,-99.99,,,-99.99,,2013-04-23 02:02:00,
2013-04-22 21:12:00,63.0,42.0,-100.00,SE,125,0.0,0.0,47,-99.99,,,-99.99,,2013-04-23 02:12:00,
2013-04-22 21:21:00,63.0,43.0,-100.00,ESE,120,0.0,0.0,48,-99.99,,,-99.99,,2013-04-23 02:21:00,
2013-04-22 21:32:00,63.0,43.0,-100.00,ESE,120,0.0,0.0,48,-99.99,,,-99.99,,2013-04-23 02:32:00,
2013-04-22 21:42:00,63.0,43.0,-100.00,SE,125,0.0,0.0,49,-99.99,,,-99.99,,2013-04-23 02:42:00,
2013-04-22 21:52:00,62.0,44.0,-100.00,SE,130,0.0,0.0,51,-99.99,,,-99.99,,2013-04-23 02:52:00,
2013-04-22 22:01:00,62.0,44.0,-100.00,SE,130,0.0,0.0,51,-99.99,,,-99.99,,2013-04-23 03:01:00,
2013-04-22 22:11:00,62.0,45.0,-100.00,SSE,165,0.0,0.0,53,-99.99,,,-99.99,,2013-04-23 03:11:00,
2013-04-22 22:21:00,62.0,46.0,-100.00,SSW,210,0.0,0.0,55,-99.99,,,-99.99,,2013-04-23 03:21:00,
2013-04-22 22:33:00,62.0,46.0,-100.00,SSW,210,0.0,0.0,55,-99.99,,,-99.99,,2013-04-23 03:33:00,
2013-04-22 22:43:00,61.0,47.0,-100.00,South,175,0.0,0.0,59,-99.99,,,-99.99,,2013-04-23 03:43:00,
2013-04-22 22:53:00,61.0,47.0,-100.00,SW,230,0.0,0.0,61,-99.99,,,-99.99,,2013-04-23 03:53:00,
2013-04-22 23:03:00,61.0,47.0,-100.00,SW,230,0.0,0.0,61,-99.99,,,-99.99,,2013-04-23 04:03:00,
2013-04-22 23:12:00,60.0,49.0,-100.00,WSW,250,0.0,0.0,67,-99.99,,,-99.99,,2013-04-23 04:12:00,
2013-04-22 23:23:00,58.0,50.0,-100.00,West,265,0.0,0.0,73,-99.99,,,-99.99,,2013-04-23 04:23:00,
2013-04-22 23:33:00,58.0,50.0,-100.00,West,265,0.0,0.0,73,-99.99,,,-99.99,,2013-04-23 04:33:00,
2013-04-22 23:43:00,59.0,50.0,-100.00,West,260,0.0,0.0,71,-99.99,,,-99.99,,2013-04-23 04:43:00,
2013-04-22 23:53:00,59.0,50.0,-100.00,SW,225,0.0,0.0,73,-99.99,,,-99.99,,2013-04-23 04:53:00,